Flag for Germany Weather past 2 weeks in Wunstorf, Lower Saxony, Germany

Now
54 °F

Cool.


Feels Like: 52 °F
Forecast: 51 / 65 °F
Wind: 6 mph from Southwest

Location: Wunstorf Airport

Current Time: Aug 22, 2014 at 12:17:23 AM

Latest Report: Aug 21, 2014 at 11:20 PM


Visibility: 5 mi

Pressure: 29.95 "Hg

Humidity: 77%

Dew point: 46 °F

Location of WunstorfLocation

Historic Weather in Wunstorf — Graph

°F

Wunstorf temperature yesterday

Maximum temperature yesterday: 64 °F (at 3:20 PM)
Minimum temperature yesterday: 50 °F (at 5:20 AM)
Average temperature yesterday: 57 °F

Past Weeks' High & Low Weather Summary

 TemperatureHumidityPressure
High79 °F (Aug 8, 4:20 PM)100% (Aug 7, 6:20 AM)30.01 "Hg (Aug 7, 6:20 AM)
Low48 °F (Aug 20, 5:20 AM)38% (Aug 11, 5:20 PM)29.59 "Hg (Aug 10, 7:20 PM)
Average62 °F75%29.83 "Hg
* Reported Aug 6 10:20 PM — Aug 21 10:20 PM, Wunstorf, Weather by CustomWeather, © 2014

Note: Actual official high and low records may vary slightly from our data, if they occured in-between our weather recording intervals... More about our weather records

Advertising

Wunstorf weather history for previous 24 hours

 ConditionsComfort  
Time TempWeatherWind HumidityBarometerVisibility
10:20 PM
Aug 21
57 °FCool.7 mph67%29.95 "Hg4 mi
9:20 PM55 °FCool.6 mph72%29.95 "Hg5 mi
8:20 PM59 °FCool.5 mph63%29.95 "Hg6 mi
7:20 PM63 °FPartly sunny.7 mph56%29.95 "HgN/A
6:20 PM64 °FScattered clouds.10 mph46%29.95 "HgN/A
5:20 PM64 °FScattered clouds.12 mph43%29.98 "HgN/A
4:20 PM64 °FPartly sunny.12 mph46%29.98 "HgN/A
3:20 PM64 °FPartly sunny.12 mph49%29.98 "HgN/A
2:20 PM63 °FScattered clouds.10 mph52%30.01 "HgN/A
1:20 PM63 °FPassing clouds.10 mph56%30.01 "HgN/A
12:20 PM61 °FPassing clouds.10 mph59%30.01 "HgN/A
11:20 AM59 °FPassing clouds.10 mph63%30.01 "HgN/A
10:20 AM57 °FScattered clouds.8 mph72%30.01 "HgN/A
9:20 AM54 °FScattered clouds.8 mph82%30.01 "Hg5 mi
8:20 AM52 °FScattered clouds.6 mph88%30.01 "Hg4 mi
7:20 AM50 °FFog.6 mph94%30.01 "Hg3 mi
6:20 AM50 °FCool.7 mph94%29.98 "Hg3 mi
5:20 AM50 °FCool.5 mph88%29.98 "Hg3 mi
4:20 AM52 °FCool.8 mph88%29.98 "Hg4 mi
3:20 AM52 °FCool.6 mph88%29.98 "Hg4 mi
2:20 AM52 °FCool.6 mph88%29.98 "Hg4 mi
1:20 AM54 °FCool.6 mph82%29.98 "Hg4 mi
12:20 AM52 °FCool.6 mph88%29.98 "Hg4 mi
Weather by CustomWeather, © 2014

See weather overviewHow to use our weather pages